STARLINK-32626, 62123

Orbit data source: Space-Track

STARLINK-32626, 62123 is a payload satellite owned by SpaceX/Seattle (US) in LEO that was launched on Wed, 27 Nov 2024 UTC via an FALCON 9 launch vehicle from the Air Force Eastern Test Range (AFETR). Payload-class satellites include a variety of spacecraft equipped with specific instruments for various scientific and technological missions. These include communications satellites like Starlink; space stations such as the ISS; scientific satellites like the Hubble; Earth observation satellites from companies like Planet Labs, Umbra, and HawkEye 360; GPS; miniature CubeSats for education and research; and military/defense satellites.

Loading next visibility...
Identifier
62123, 2024-222K
Orbit
LEO
Country
Flag of USUS
Related business
Manufacturer
SpaceX/Seattle
Mission
Operational Commercial Communications
Bus & Motor
STARLINK V2M, Unknown motor
Mass
730 kg wet, ~700 kg dry
Launch date (UTC)
2024-11-27 (2 years ago)
Launch vehicle
FALCON 9
Launch site
Air Force Eastern Test Range (AFETR)
Object type
Payload
Rocket body
Debris
Shape & HBR
Box + 2 Pan, 17.7 m
Radar Cross Section
33.884 m², Large (>1 m²)

Expand to show TLE details & history
Last TLE update: 1 day ago

TLE from 1 day ago
0 STARLINK-32626
1 62123U 24222K   26170.67370872  .00016968  00000-0  62438-3 0  9998
2 62123  43.0001 280.4456 0001254 275.2965  84.7744 15.27597005 88349
Epoch: 2026-06-19T16:10Z
TLE epoch observation values (Epoch: 2026-06-19T16:10:08.433Z)
Latitude
0.00002°
Longitude
130.01118°
Altitude
482.695 km
Speed
7.626 km/s
True Right ascension
18h 41m 46s
True Declination
0° 00' 00"
Sunlit
Object was in full shadow at epoch
Visualization orbit readout
Latitude
Unknown
Longitude
Unknown
Altitude
Unknown
Speed
Unknown
Apparent Right ascension
Unknown
Apparent Declination
Unknown
Sunlit
N/A
Visualization observer readout
Local Sidereal Time
07:18:01
Azimuth
Unknown
Elevation
Unknown
Doppler factor
Unknown
Orbital elements
Apogee altitude
485.804 km
Perigee altitude
484.083 km
Semi-major axis
6,863.08 km
Eccentricity
0.00013
Inclination
43.0001°
RAAN
280.4456°
Arg. of periapsis
275.2965°
True anomaly
84.78871°
Mean anomaly
84.7744°
Eccentric anomaly
84.78156°
Mean motion
3.81737 °/min
Orbital period
94.31 mins
BSTAR
0.00062438
Loading maneuver chart data...
Computing Atmospheric mass density...
Loading historical data...
Loading historical data...
Loading historical data...
Loading historical data...
Loading historical data...
Loading historical data...
Loading historical data...

Documentation

Showing up to 5 results
|